User: anonymous   Login
Location: Владивосток
(43.1151°N, 131.8856°E)
Time: 09:34:41
(UTC+10:00)
Language:

FO-29 - Orbit

View from above orbital plane
View from above orbital plane
View from above satellite
View from above satellite

Ground track
Ground track

The orbit data is extracted from the following two-line orbital elements,

1 24278U 96046B   24109.37659598  .00000123  00000-0  16289-3 0  9991
2 24278  98.5762  51.8786 0349880 343.3669  15.6224 13.53181983366347
Epoch (UTC): 18 April 2024 09:02:17
Eccentricity: 0.0349880
inclination: 98.5762°
perigee height: 800 km
apogee height: 1321 km
right ascension of ascending node: 51.8786°
argument of perigee: 343.3669°
revolutions per day: 13.53181983
mean anomaly at epoch: 15.6224°
orbit number at epoch: 36634

The dashed part of the orbit path shows where the satellite is in the earth's shadow,  

DLR